Simultaneous Nadir Overpasses (SNOs) Predictions

Prediction of SNOs between FY3D and METOP-A Satellite Orbit:

Table of predicted SNOs for the next 14.0 days since TLE Epoch: 5/7/2021
Index Date (FY3D) Time (FY3D) Lat,Lon (FY3D) SZA (FY3D ) Date (METOP-A) Time (METOP-A) Lat,Lon (METOP-A) SZA (METOP-A ) Distance(km) Time Diff (sec)
1 05/20/2021 14:28:29 77.39, -56.29 57.92 05/20/2021 14:29:36 77.35, -53.54 57.67 66.94 67
2 05/20/2021 15:19:10 -77.28, 111.53 122.23 05/20/2021 15:20:20 -77.27, 113.42 122.40 46.38 70
3 05/20/2021 16:09:51 77.09, -80.35 57.53 05/20/2021 16:11:04 77.07, -80.04 57.46 8.11 73
4 05/20/2021 17:00:33 -77.02, 87.26 122.57 05/20/2021 17:01:47 -77.03, 87.11 122.58 3.61 74
5 05/20/2021 17:51:19 77.05,-105.55 57.46 05/20/2021 17:52:26 77.05,-105.46 57.44 2.25 67
6 05/20/2021 18:42:02 -77.03, 61.88 122.58 05/20/2021 18:43:08 -77.05, 61.87 122.57 2.99 66
7 05/20/2021 19:32:48 77.05,-130.93 57.45 05/20/2021 19:33:48 77.03,-130.87 57.41 2.68 60
8 05/20/2021 20:23:31 -77.03, 36.50 122.59 05/20/2021 20:24:30 -77.03, 36.46 122.60 1.25 59
9 05/20/2021 21:14:16 77.01,-156.12 57.39 05/20/2021 21:15:10 77.01,-156.29 57.38 4.15 54
10 05/20/2021 22:05:00 -77.03, 11.12 122.60 05/20/2021 22:05:52 -77.02, 11.04 122.63 2.55 52
11 05/20/2021 22:55:45 77.01, 178.50 57.38 05/20/2021 22:56:31 77.04, 178.47 57.39 2.89 46
12 05/20/2021 23:46:29 -77.03, -14.26 122.61 05/20/2021 23:47:13 -77.04, -14.20 122.62 1.80 44
13 05/21/2021 00:37:14 77.02, 153.12 57.36 05/21/2021 00:37:53 77.02, 153.05 57.36 1.68 39
14 05/21/2021 01:27:58 -77.03, -39.64 122.63 05/21/2021 01:28:35 -77.02, -39.61 122.65 1.42 37
15 05/21/2021 02:18:43 77.02, 127.74 57.35 05/21/2021 02:19:15 77.00, 127.64 57.33 3.14 32
16 05/21/2021 03:09:27 -77.04, -65.02 122.64 05/21/2021 03:09:57 -77.00, -65.03 122.68 3.63 30
17 05/21/2021 04:00:12 77.02, 102.36 57.34 05/21/2021 04:00:36 77.03, 102.40 57.34 1.22 24
18 05/21/2021 04:50:56 -77.04, -90.39 122.65 05/21/2021 04:51:18 -77.03, -90.27 122.67 3.26 22



Historial Predications of SNOs between FY3D and METOP-A
